TimeCDT,TemperatureF,Dew PointF,Humidity,Sea Level PressureIn,VisibilityMPH,Wind Direction,Wind SpeedMPH,Gust SpeedMPH,PrecipitationIn,Events,Conditions,WindDirDegrees,DateUTC
12:53 AM,66.9,60.1,79,29.79,10.0,SE,9.2,-,N/A,,Clear,140,2013-09-26 05:53:00
1:53 AM,64.0,59.0,84,29.78,10.0,SE,8.1,-,N/A,,Clear,130,2013-09-26 06:53:00
2:53 AM,68.0,60.1,76,29.78,10.0,SE,6.9,-,N/A,,Clear,140,2013-09-26 07:53:00
3:53 AM,68.0,59.0,73,29.78,10.0,SSE,12.7,-,N/A,,Clear,160,2013-09-26 08:53:00
4:53 AM,66.9,59.0,76,29.80,10.0,SSE,5.8,-,N/A,,Clear,160,2013-09-26 09:53:00
5:53 AM,64.0,59.0,84,29.81,10.0,SE,4.6,-,N/A,,Clear,140,2013-09-26 10:53:00
6:53 AM,64.0,59.0,84,29.83,10.0,SE,8.1,-,N/A,,Clear,140,2013-09-26 11:53:00
7:53 AM,64.9,60.1,84,29.85,10.0,SE,5.8,-,N/A,,Clear,140,2013-09-26 12:53:00
8:53 AM,70.0,60.1,71,29.86,10.0,SSE,10.4,-,N/A,,Clear,150,2013-09-26 13:53:00
9:53 AM,75.0,61.0,62,29.87,10.0,SSE,15.0,23.0,N/A,,Clear,160,2013-09-26 14:53:00
10:53 AM,78.1,60.1,54,29.87,10.0,SSE,13.8,24.2,N/A,,Clear,160,2013-09-26 15:53:00
11:53 AM,82.9,61.0,47,29.86,10.0,SE,12.7,-,N/A,,Clear,140,2013-09-26 16:53:00
12:53 PM,84.9,61.0,44,29.85,10.0,SSE,13.8,-,N/A,,Clear,160,2013-09-26 17:53:00
1:53 PM,88.0,62.1,42,29.83,10.0,SSE,16.1,20.7,N/A,,Clear,160,2013-09-26 18:53:00
2:53 PM,90.0,62.1,39,29.81,10.0,South,13.8,-,N/A,,Clear,170,2013-09-26 19:53:00
3:53 PM,91.0,61.0,36,29.80,10.0,SSE,13.8,-,N/A,,Partly Cloudy,160,2013-09-26 20:53:00
4:53 PM,91.0,60.1,35,29.79,10.0,SE,16.1,21.9,N/A,,Partly Cloudy,140,2013-09-26 21:53:00
5:53 PM,90.0,59.0,35,29.79,10.0,SE,11.5,24.2,N/A,,Partly Cloudy,140,2013-09-26 22:53:00
6:53 PM,84.9,60.1,43,29.80,10.0,SE,11.5,-,N/A,,Clear,130,2013-09-26 23:53:00
7:53 PM,81.0,62.1,52,29.80,10.0,SE,8.1,-,N/A,,Clear,130,2013-09-27 00:53:00
8:53 PM,81.0,61.0,50,29.83,10.0,SE,11.5,-,N/A,,Clear,130,2013-09-27 01:53:00
9:53 PM,79.0,61.0,54,29.83,10.0,SE,15.0,-,N/A,,Clear,130,2013-09-27 02:53:00
10:53 PM,78.1,61.0,56,29.84,10.0,SE,12.7,-,N/A,,Clear,140,2013-09-27 03:53:00
11:53 PM,77.0,61.0,58,29.85,10.0,SE,11.5,-,N/A,,Clear,140,2013-09-27 04:53:00